Wind_Speed
14 14 13 13 13 13 12 12 11 11 10 9 9 8 8 9 9 9 8 8 7 7 6 6 5 5 4 4 3 3 4 4 4 4 4 4 5 5 5 5 6 6 6
16 16 15 14 14 14 13 13 12 12 11 11 10 10 9 9 9 9 8 8 8 7 7 6 5 5 5 4 3 3 3 3 3 3 3 3 4 4 4 4 5 5 5
17 17 17 16 15 15 14 14 13 13 13 12 11 11 10 10 10 9 9 8 8 8 7 7 6 5 5 4 4 3 3 3 3 2 2 2 2 3 3 3 4 4 5
18 18 18 17 17 17 16 15 15 14 14 14 13 12 12 11 11 10 9 9 8 8 8 7 6 5 5 5 4 3 3 3 2 2 1 1 1 2 2 3 3 4 4
20 20 20 19 19 18 18 17 16 15 15 15 14 13 13 12 11 11 10 10 9 9 8 7 7 5 5 5 4 4 3 3 2 1 0 1 1 2 2 3 3 3 4
22 21 21 21 21 20 19 18 18 17 16 16 15 15 14 13 12 11 11 11 10 9 9 8 7 6 5 5 4 4 3 3 3 2 1 2 2 2 2 3 3 3 4
24 23 23 23 23 22 21 20 19 19 18 17 17 16 15 15 14 13 12 12 11 10 10 10 9 8 7 6 5 5 5 4 4 3 3 3 3 3 3 3 4 4 4
26 25 25 25 24 24 23 22 21 20 20 19 18 17 17 16 16 15 14 13 13 12 11 11 10 9 8 7 7 6 6 6 5 5 4 4 4 4 4 5 5 5 5
29 28 27 27 26 26 25 24 24 23 22 21 20 19 18 18 17 16 16 14 14 13 13 12 11 11 10 9 9 8 7 7 7 6 6 6 6 6 6 6 6 6 6
31 30 30 29 29 28 28 27 25 25 24 23 22 21 20 20 19 17 17 16 15 15 14 13 13 12 12 11 10 10 9 9 8 8 7 7 7 7 7 7 7 7 7
33 32 32 32 31 30 30 29 28 27 26 25 24 23 22 21 20 19 18 18 17 16 15 14 14 13 13 13 12 11 11 10 10 9 9 9 8 8 8 8 8 8 8
36 35 34 34 34 33 32 31 30 29 28 27 26 25 24 23 22 21 20 19 18 17 16 16 15 15 14 13 13 13 12 12 11 10 10 10 10 10 9 9 10 10 10
38 37 36 36 36 35 35 34 33 32 30 29 28 27 26 25 24 23 22 21 20 19 18 17 16 16 15 15 14 14 14 13 13 12 11 11 11 11 10 11 11 11 11
41 41 39 38 38 37 37 36 35 34 33 32 30 29 29 27 26 25 24 23 22 20 20 19 18 17 17 16 16 15 14 14 14 14 13 13 12 12 12 12 12 12 12
44 43 42 41 40 40 39 38 38 37 36 35 34 32 31 30 28 27 26 25 23 22 21 21 20 19 18 17 17 17 16 15 15 15 14 14 13 13 13 13 13 13 13
46 45 45 43 42 42 42 41 40 40 39 37 36 35 34 32 31 29 28 27 26 24 23 22 22 21 19 18 17 18 18 17 16 16 16 15 15 14 14 14 14 15 15
47 46 46 45 44 44 43 43 42 41 40 40 39 37 36 35 33 32 30 29 28 26 25 24 24 23 22 20 19 19 18 18 18 17 17 17 16 15 15 15 16 16 15
49 48 47 47 46 45 45 45 44 43 42 41 41 40 38 37 35 34 32 31 30 28 27 26 25 24 23 22 21 20 20 19 19 19 19 18 18 17 16 17 16 16 16
50 49 49 48 48 47 47 46 45 45 44 43 42 41 40 39 37 35 34 33 31 30 29 27 26 25 24 24 23 22 22 21 21 21 20 19 18 18 17 17 17 17 17
51 51 51 50 50 49 48 47 47 47 46 45 44 43 42 41 39 38 36 35 33 32 31 29 28 26 25 25 24 23 23 22 21 21 20 21 20 20 19 19 19 18 18
52 52 51 52 51 50 50 49 49 48 47 47 46 45 44 43 42 40 38 37 35 34 33 32 30 28 26 26 26 25 24 24 23 22 21 21 21 21 21 20 19 19 19
52 52 51 52 51 51 50 50 50 49 49 48 47 46 45 44 44 42 41 39 37 36 36 34 33 31 29 28 27 27 26 25 25 24 23 22 22 22 22 22 21 21 21
51 52 52 51 52 51 50 51 51 50 50 50 49 47 46 45 44 44 43 41 40 39 38 37 35 34 32 30 29 29 28 27 26 25 25 24 24 23 23 23 23 23 22
50 52 53 52 52 53 51 50 50 50 50 49 48 47 46 45 45 44 44 43 42 41 39 39 38 37 35 33 32 31 30 29 28 27 26 25 25 25 25 25 24 24 24
49 50 53 53 53 54 53 52 51 51 51 50 49 48 47 46 46 45 45 44 43 42 41 40 39 38 37 36 34 33 32 31 30 29 28 27 26 26 26 26 26 26 25
49 49 52 54 53 54 54 54 53 52 51 51 50 49 48 48 47 47 45 45 45 43 42 42 40 39 38 38 37 35 34 33 32 31 30 29 28 28 28 28 28 28 28
Wind_Direction
215 213 210 208 207 205 204 203 203 204 205 202 202 202 198 195 193 190 189 186 183 181 180 179 179 173 165 156 146 138 128 118 111 106 98 90 81 76 71 68 64 59 55
218 216 214 211 208 208 208 207 208 209 209 209 207 206 205 201 198 196 195 193 191 189 186 184 188 184 176 174 169 156 141 129 118 112 103 90 77 69 65 62 56 50 45
220 218 217 215 213 212 211 210 211 213 213 213 212 209 208 206 202 199 199 199 199 199 195 191 192 190 186 188 183 173 161 146 129 126 108 89 68 54 48 43 41 37 33
222 220 218 217 217 216 214 213 214 216 216 216 216 214 211 209 208 205 203 204 205 205 204 200 199 195 192 192 184 180 175 164 150 139 117 80 39 28 28 30 30 28 21
224 223 221 219 218 218 217 215 215 217 218 218 217 216 215 214 212 211 209 209 210 211 211 210 206 199 195 196 196 197 193 187 188 187 186 317 340 353 358 5 10 10 8
226 224 223 222 220 220 219 217 217 217 218 219 219 218 217 216 216 215 214 213 215 218 217 216 214 208 206 206 209 212 210 212 223 236 257 280 298 314 326 334 344 350 350
227 225 225 224 223 222 221 219 219 219 219 219 220 221 221 221 220 220 219 218 219 222 224 223 220 218 219 223 226 228 227 230 238 247 259 271 283 294 302 308 319 328 331
229 227 226 226 224 223 223 222 221 221 221 222 223 223 223 224 224 224 224 224 224 226 228 228 225 224 226 230 234 237 238 241 247 255 260 269 277 283 289 296 304 310 315
230 229 228 227 226 225 225 224 223 222 222 224 225 225 225 225 226 226 226 226 227 228 229 229 229 229 231 235 238 240 242 246 250 257 264 269 274 280 283 288 295 300 307
231 230 229 228 227 226 226 226 225 225 224 225 227 227 227 227 226 226 226 226 227 228 229 229 230 233 235 239 241 243 246 249 252 258 264 268 273 279 282 284 288 293 299
231 231 231 229 228 227 226 227 227 227 226 226 227 227 228 228 228 228 227 228 229 231 231 231 233 236 239 242 244 244 247 251 253 258 262 266 271 277 282 283 284 288 291
232 232 232 231 231 230 228 227 228 228 228 227 227 227 228 228 229 229 229 230 231 233 233 234 236 238 240 243 245 247 248 251 253 257 262 265 269 274 279 281 283 286 289
233 232 232 232 232 232 230 229 229 229 228 227 228 228 228 229 230 230 230 231 232 234 236 236 236 239 241 244 246 247 248 250 252 256 261 265 268 270 274 279 282 284 286
234 233 232 232 232 232 232 231 230 229 228 228 228 228 229 230 230 230 231 231 233 235 237 238 239 240 242 243 245 245 247 249 253 256 260 263 266 269 273 277 281 283 285
233 233 232 232 232 232 232 231 231 230 229 229 228 229 229 230 231 231 232 232 233 235 236 239 240 241 241 243 245 245 245 250 254 257 259 262 266 269 272 277 281 284 286
233 232 233 232 232 232 232 231 231 231 231 231 230 230 230 230 231 232 233 234 234 235 237 239 240 240 242 243 245 246 248 250 253 257 261 263 265 268 272 277 280 282 283
234 233 232 232 232 232 231 231 231 231 232 231 231 230 231 231 231 232 233 234 235 236 237 239 239 239 241 243 244 246 249 251 253 257 260 263 264 266 271 275 278 281 281
233 233 232 231 231 231 231 231 231 231 231 231 231 231 231 232 232 232 232 233 234 235 236 237 238 240 241 243 244 246 250 252 255 258 260 261 263 266 269 273 276 278 279
232 231 231 232 231 231 231 231 231 231 231 230 230 230 231 231 232 233 233 232 233 234 235 236 238 240 242 243 245 247 250 253 256 258 260 260 262 265 268 271 274 274 276
231 231 231 231 231 231 231 231 231 231 230 230 230 230 230 231 231 232 232 232 232 232 234 236 238 240 242 244 246 249 250 252 256 258 259 260 260 262 266 269 271 273 275
231 230 230 231 231 231 231 231 231 231 231 230 230 231 231 231 231 232 232 232 232 232 234 236 238 239 241 244 246 249 251 253 255 258 259 261 261 262 264 266 268 271 274
231 229 229 230 229 230 230 231 230 230 231 231 231 231 231 232 232 233 233 233 233 233 234 236 238 240 242 245 247 249 252 254 255 258 258 260 262 263 264 265 267 270 272
231 229 228 228 228 228 229 229 229 229 229 230 231 231 232 232 232 234 234 233 234 235 236 236 238 240 242 244 246 248 251 254 257 258 258 259 261 263 264 265 266 268 271
231 229 228 228 228 228 228 229 229 229 229 229 230 231 231 232 232 233 233 234 234 236 237 238 239 241 242 244 246 248 251 254 257 259 259 260 261 262 264 266 266 268 271
231 229 227 227 228 227 227 229 229 228 228 229 229 230 231 232 232 233 234 234 234 235 236 238 239 241 243 244 246 248 250 253 255 258 259 260 262 263 264 267 268 269 270
231 230 227 226 227 227 227 228 228 228 228 229 229 230 231 231 232 233 234 235 235 236 237 238 239 241 243 245 246 248 250 252 254 256 258 260 261 263 265 267 269 270 270
Height
5854 5855 5856 5857 5858 5860 5861 5862 5864 5865 5866 5867 5868 5869 5870 5871 5871 5872 5873 5874 5874 5875 5875 5876 5876 5876 5877 5877 5877 5877 5877 5877 5877 5877 5877 5877 5876 5876 5875 5875 5875 5874 5873
5852 5853 5854 5856 5857 5858 5860 5861 5863 5864 5865 5867 5868 5869 5870 5870 5871 5872 5872 5873 5874 5874 5875 5876 5876 5876 5877 5877 5877 5877 5877 5877 5877 5877 5877 5877 5877 5877 5876 5876 5875 5874 5874
5849 5851 5852 5854 5855 5857 5858 5860 5862 5863 5864 5866 5867 5868 5869 5870 5871 5871 5872 5873 5874 5874 5875 5875 5876 5876 5876 5877 5877 5877 5877 5878 5878 5878 5878 5878 5877 5877 5876 5876 5875 5875 5874
5847 5849 5850 5852 5854 5855 5857 5858 5860 5862 5863 5864 5866 5867 5868 5869 5870 5871 5871 5872 5873 5874 5874 5875 5876 5876 5876 5877 5877 5877 5877 5878 5878 5878 5878 5878 5877 5877 5877 5876 5875 5875 5874
5844 5846 5847 5849 5851 5853 5854 5856 5858 5860 5861 5863 5864 5865 5867 5868 5869 5870 5871 5871 5872 5873 5874 5875 5875 5876 5876 5877 5877 5877 5877 5878 5878 5878 5878 5878 5877 5877 5877 5876 5876 5875 5874
5840 5842 5844 5846 5848 5850 5852 5854 5856 5858 5859 5861 5862 5864 5865 5866 5867 5869 5870 5870 5871 5872 5873 5874 5875 5875 5876 5876 5877 5877 5877 5877 5878 5877 5877 5877 5877 5877 5877 5876 5876 5875 5874
5836 5839 5841 5843 5845 5847 5849 5851 5853 5855 5857 5859 5860 5862 5863 5865 5866 5867 5868 5869 5870 5871 5872 5873 5874 5875 5875 5876 5876 5876 5877 5877 5877 5877 5877 5877 5877 5877 5876 5876 5875 5875 5874
5832 5834 5837 5839 5841 5844 5846 5848 5850 5852 5854 5856 5858 5860 5861 5863 5864 5865 5867 5868 5869 5870 5871 5872 5873 5873 5874 5875 5875 5876 5876 5876 5876 5876 5876 5876 5876 5876 5876 5875 5875 5874 5873
5827 5829 5832 5835 5837 5840 5842 5844 5846 5849 5851 5853 5855 5857 5859 5860 5862 5863 5864 5866 5867 5868 5869 5870 5871 5872 5873 5873 5874 5874 5875 5875 5875 5876 5876 5875 5875 5875 5875 5874 5874 5873 5872
5821 5824 5827 5830 5832 5835 5837 5840 5842 5845 5847 5850 5852 5854 5856 5857 5859 5860 5862 5863 5864 5866 5867 5868 5869 5870 5871 5872 5872 5873 5873 5874 5874 5874 5874 5874 5874 5874 5873 5873 5873 5872 5871
5815 5818 5821 5824 5827 5830 5832 5835 5838 5840 5843 5845 5848 5850 5852 5854 5856 5857 5859 5860 5862 5863 5864 5865 5867 5868 5869 5870 5870 5871 5871 5872 5872 5873 5873 5873 5873 5872 5872 5872 5871 5871 5870
5808 5811 5815 5818 5821 5824 5827 5830 5833 5835 5838 5841 5843 5846 5848 5850 5852 5854 5856 5857 5859 5860 5861 5863 5864 5865 5866 5867 5868 5869 5869 5870 5870 5871 5871 5871 5871 5871 5870 5870 5870 5869 5869
5800 5804 5807 5811 5814 5817 5820 5823 5827 5830 5833 5836 5838 5841 5844 5846 5848 5850 5852 5854 5855 5857 5859 5860 5861 5862 5864 5865 5865 5866 5867 5867 5868 5868 5869 5869 5869 5869 5868 5868 5868 5867 5867
5791 5795 5799 5803 5806 5810 5813 5816 5820 5823 5826 5830 5833 5836 5839 5841 5843 5846 5848 5850 5852 5853 5855 5857 5858 5859 5860 5862 5862 5863 5864 5865 5865 5866 5866 5867 5866 5866 5866 5866 5866 5865 5865
5782 5786 5790 5794 5798 5801 5805 5809 5812 5816 5819 5823 5826 5830 5833 5836 5838 5841 5843 5846 5848 5849 5851 5853 5854 5856 5857 5858 5859 5860 5861 5862 5863 5863 5864 5864 5864 5864 5864 5864 5863 5863 5862
5771 5776 5780 5785 5789 5792 5796 5800 5804 5808 5812 5815 5819 5823 5826 5829 5832 5835 5838 5841 5843 5845 5847 5849 5850 5852 5854 5855 5856 5857 5858 5859 5860 5860 5861 5861 5861 5861 5861 5861 5861 5860 5859
5761 5766 5770 5774 5778 5783 5787 5791 5795 5799 5803 5807 5812 5816 5819 5823 5826 5829 5832 5835 5838 5840 5842 5844 5846 5848 5849 5851 5852 5853 5854 5855 5856 5857 5857 5858 5858 5858 5858 5858 5857 5857 5856
5749 5754 5759 5763 5768 5772 5777 5781 5786 5790 5794 5799 5803 5808 5812 5816 5819 5823 5826 5829 5832 5834 5837 5839 5841 5843 5845 5847 5848 5849 5850 5851 5852 5853 5853 5854 5854 5854 5854 5854 5854 5853 5853
5737 5742 5747 5752 5757 5762 5767 5771 5776 5780 5785 5790 5794 5799 5804 5808 5812 5815 5819 5822 5825 5828 5831 5833 5836 5838 5840 5842 5843 5845 5846 5847 5848 5848 5849 5850 5850 5850 5850 5850 5850 5850 5849
5724 5729 5735 5740 5745 5750 5755 5761 5766 5770 5775 5780 5785 5790 5795 5799 5804 5808 5811 5815 5819 5822 5825 5828 5830 5832 5834 5836 5838 5840 5841 5842 5843 5844 5844 5845 5846 5846 5846 5846 5846 5846 5845
5711 5716 5722 5728 5734 5739 5744 5750 5755 5761 5766 5771 5776 5781 5786 5790 5795 5799 5803 5807 5811 5815 5818 5821 5824 5826 5829 5831 5833 5834 5836 5837 5838 5839 5840 5840 5841 5841 5841 5842 5842 5842 5841
5698 5704 5709 5716 5722 5728 5734 5739 5745 5750 5756 5761 5766 5771 5776 5781 5786 5791 5795 5799 5803 5807 5811 5814 5817 5820 5822 5825 5827 5828 5830 5832 5833 5834 5835 5835 5836 5836 5837 5837 5837 5837 5837
5686 5692 5698 5704 5711 5717 5722 5728 5733 5739 5744 5750 5756 5762 5767 5772 5777 5782 5787 5791 5795 5799 5803 5807 5810 5813 5815 5818 5820 5823 5824 5826 5827 5828 5829 5830 5831 5831 5831 5832 5832 5832 5832
5674 5679 5686 5692 5699 5705 5711 5717 5722 5729 5734 5740 5746 5752 5757 5763 5768 5773 5778 5782 5786 5791 5795 5798 5802 5805 5808 5811 5813 5816 5818 5820 5821 5822 5824 5824 5825 5825 5826 5826 5826 5826 5826
5662 5668 5674 5680 5686 5693 5700 5706 5712 5718 5724 5730 5735 5741 5747 5753 5758 5763 5768 5773 5777 5782 5786 5790 5793 5797 5800 5803 5806 5808 5810 5812 5814 5816 5817 5818 5819 5819 5820 5820 5820 5820 5820
5650 5656 5662 5669 5674 5681 5688 5694 5700 5707 5714 5719 5724 5731 5737 5742 5748 5753 5758 5763 5768 5773 5777 5781 5784 5788 5791 5795 5798 5800 5803 5805 5807 5809 5810 5811 5812 5813 5813 5813 5814 5814 5814